KJ4AJP Weather Reports


Display with metric or nautical units.
time (UTC)temp
F
wind
direction
speed
MPH
gust
MPH
rain 1hr
in
rain 24hr
in
rain mn
in
humidity
%
barometer
mb
20260831170442 93 299 4.0 4.0 0.00 0.00 0.00 50 1019.4
20260831165938 93 26 2.0 3.0 0.00 0.00 0.00 52 1019.3
20260831165434 93 59 0.0 0.0 0.00 0.00 0.00 56 1019.5
20260831164931 93 265 3.0 3.0 0.00 0.00 0.00 56 1019.4
20260831164427 92 83 1.0 2.0 0.00 0.00 0.00 54 1019.7
20260831163927 92 0 1.0 1.0 0.00 0.00 0.00 54 1019.8
20260831163422 92 82 1.0 2.0 0.00 0.00 0.00 55 1019.8
20260831162921 91 282 4.0 6.0 0.00 0.00 0.00 56 1019.9
20260831162416 91 172 4.0 7.0 0.00 0.00 0.00 56 1019.6
20260831161915 91 197 4.0 4.0 0.00 0.00 0.00 55 1019.8
20260831161412 91 350 5.0 7.0 0.00 0.00 0.00 58 1019.8
20260831160907 91 14 3.0 3.0 0.00 0.00 0.00 57 1019.8
20260831160401 91 195 2.0 3.0 0.00 0.00 0.00 58 1019.9
20260831155857 90 203 3.0 3.0 0.00 0.00 0.00 58 1019.8
20260831155356 90 239 2.0 4.0 0.00 0.00 0.00 61 1019.8
20260831154852 89 319 3.0 4.0 0.00 0.00 0.00 60 1019.7
20260831154348 90 262 4.0 4.0 0.00 0.00 0.00 58 1019.8
20260831153846 90 30 3.0 6.0 0.00 0.00 0.00 59 1019.8
20260831153343 89 288 2.0 3.0 0.00 0.00 0.00 61 1019.8
20260831152838 90 231 3.0 3.0 0.00 0.00 0.00 61 1019.6
20260831152334 89 106 2.0 3.0 0.00 0.00 0.00 62 1019.9
20260831151829 88 101 1.0 2.0 0.00 0.00 0.00 62 1019.8
20260831151328 88 244 3.0 3.0 0.00 0.00 0.00 62 1019.8
20260831150823 88 357 1.0 2.0 0.00 0.00 0.00 63 1019.8
20260831150319 89 334 3.0 3.0 0.00 0.00 0.00 63 1019.7
20260831145818 88 71 1.0 2.0 0.00 0.00 0.00 64 1019.7
20260831145315 88 122 3.0 3.0 0.00 0.00 0.00 63 1019.6
20260831144810 88 270 1.0 2.0 0.00 0.00 0.00 64 1019.9
20260831144306 87 302 2.0 3.0 0.00 0.00 0.00 65 1019.7
20260831143805 87 126 2.0 3.0 0.00 0.00 0.00 66 1019.7
20260831143301 87 66 0.0 1.0 0.00 0.00 0.00 67 1019.7
20260831142756 86 28 0.0 1.0 0.00 0.00 0.00 67 1019.6
20260831142251 86 256 3.0 3.0 0.00 0.00 0.00 68 1019.8
20260831141751 85 37 2.0 2.0 0.00 0.00 0.00 69 1019.5
20260831141251 85 144 3.0 3.0 0.00 0.00 0.00 69 1019.6
20260831140747 85 289 1.0 3.0 0.00 0.00 0.00 69 1019.4
20260831140246 84 138 2.0 2.0 0.00 0.00 0.00 70 1019.4
20260831135743 84 54 0.0 0.0 0.00 0.00 0.00 72 1019.4
20260831135240 83 60 0.0 0.0 0.00 0.00 0.00 73 1019.5
20260831134735 83 14 4.0 4.0 0.00 0.00 0.00 72 1019.3
20260831134232 83 314 2.0 2.0 0.00 0.00 0.00 72 1019.3
20260831133730 83 60 0.0 0.0 0.00 0.00 0.00 74 1019.2
20260831133225 82 45 0.0 0.0 0.00 0.00 0.00 75 1019.1
20260831132720 81 263 3.0 3.0 0.00 0.00 0.00 77 1019.2
20260831132215 80 62 1.0 1.0 0.00 0.00 0.00 78 1019.3
20260831131715 81 240 2.0 2.0 0.00 0.00 0.00 77 1019.4
20260831131212 81 185 1.0 2.0 0.00 0.00 0.00 78 1019.3
20260831130712 80 179 1.0 2.0 0.00 0.00 0.00 79 1019.1
20260831130208 80 61 2.0 3.0 0.00 0.00 0.00 81 1019.1
20260831125706 79 54 0.0 1.0 0.00 0.00 0.00 82 1019.1
20260831125202 79 50 0.0 1.0 0.00 0.00 0.00 83 1018.8
20260831124657 78 199 1.0 2.0 0.00 0.00 0.00 84 1018.8
20260831124153 77 73 0.0 0.0 0.00 0.00 0.00 85 1018.9
20260831123653 77 62 0.0 0.0 0.00 0.00 0.00 88 1018.8
20260831123152 75 62 0.0 0.0 0.00 0.00 0.00 90 1018.8
20260831122651 74 62 0.0 0.0 0.00 0.00 0.00 95 1018.7
20260831122148 73 62 0.0 0.0 0.00 0.00 0.00 95 1018.4
20260831121647 73 63 0.0 0.0 0.00 0.00 0.00 95 1018.7
20260831121143 72 63 0.0 0.0 0.00 0.00 0.00 95 1018.5
20260831120639 72 63 0.0 0.0 0.00 0.00 0.00 95 1018.5
20260831120133 72 63 0.0 0.0 0.00 0.00 0.00 95 1018.4
20260831115629 72 63 0.0 0.0 0.00 0.00 0.00 95 1018.5
20260831115124 72 63 0.0 0.0 0.00 0.00 0.00 95 1018.4
20260831114624 72 63 0.0 0.0 0.00 0.00 0.00 95 1018.3
20260831114119 72 63 0.0 0.0 0.00 0.00 0.00 95 1018.2
20260831113618 72 63 0.0 0.0 0.00 0.00 0.00 95 1018.2
20260831113113 72 63 0.0 0.0 0.00 0.00 0.00 95 1018.2
20260831112612 72 63 0.0 0.0 0.00 0.00 0.00 95 1018.2
20260831112108 72 63 0.0 0.0 0.00 0.00 0.00 95 1018.4
20260831111604 72 63 0.0 0.0 0.00 0.00 0.00 94 1018.2
20260831111059 72 63 0.0 0.0 0.00 0.00 0.00 94 1018.2
20260831110554 72 63 0.0 0.0 0.00 0.00 0.00 94 1018.1
20260831110049 73 63 0.0 0.0 0.00 0.00 0.00 93 1018.2
20260831105549 73 63 0.0 0.0 0.00 0.00 0.00 93 1018.0
20260831105043 73 63 0.0 0.0 0.00 0.00 0.00 93 1018.3
20260831104540 73 63 0.0 0.0 0.00 0.00 0.00 93 1017.9
20260831104036 73 63 0.0 0.0 0.00 0.00 0.00 93 1018.0
20260831103531 73 63 0.0 0.0 0.00 0.00 0.00 93 1017.9
20260831103027 73 63 0.0 0.0 0.00 0.00 0.00 93 1017.7
20260831102526 73 63 0.0 0.0 0.00 0.00 0.00 93 1018.0
20260831102021 73 63 0.0 0.0 0.00 0.00 0.00 93 1017.7
20260831101517 73 63 0.0 0.0 0.00 0.00 0.00 93 1017.7
20260831101013 73 63 0.0 0.0 0.00 0.00 0.00 93 1017.8
20260831100509 73 63 0.0 0.0 0.00 0.00 0.00 93 1017.8
20260831100004 73 63 0.0 0.0 0.00 0.00 0.00 93 1017.6
20260831095503 73 63 0.0 0.0 0.00 0.00 0.00 93 1017.7
20260831094957 73 63 0.0 0.0 0.00 0.00 0.00 93 1017.6
20260831094454 73 63 0.0 0.0 0.00 0.00 0.00 92 1017.5
20260831093949 73 63 0.0 0.0 0.00 0.00 0.00 92 1017.4
20260831093444 73 63 0.0 0.0 0.00 0.00 0.00 92 1017.4
20260831092941 73 63 0.0 0.0 0.00 0.00 0.00 92 1017.4
20260831092436 73 63 0.0 0.0 0.00 0.00 0.00 92 1017.4
20260831091931 73 63 0.0 0.0 0.00 0.00 0.00 92 1017.4
20260831091427 73 63 0.0 0.0 0.00 0.00 0.00 92 1017.3
20260831090922 73 63 0.0 0.0 0.00 0.00 0.00 92 1017.4
20260831090418 74 62 0.0 0.0 0.00 0.00 0.00 92 1017.2
20260831085914 74 62 0.0 0.0 0.00 0.00 0.00 91 1017.1
20260831085408 74 62 0.0 0.0 0.00 0.00 0.00 91 1017.1
20260831084908 74 62 0.0 0.0 0.00 0.00 0.00 91 1017.1
20260831084404 74 62 0.0 0.0 0.00 0.00 0.00 91 1016.9
20260831083900 74 62 0.0 0.0 0.00 0.00 0.00 91 1017.2
20260831083355 74 62 0.0 0.0 0.00 0.00 0.00 91 1017.2
20260831082854 74 62 0.0 0.0 0.00 0.00 0.00 91 1017.0
20260831082349 74 62 0.0 0.0 0.00 0.00 0.00 90 1017.0
20260831081845 74 62 0.0 0.0 0.00 0.00 0.00 91 1016.9
20260831081340 74 62 0.0 0.0 0.00 0.00 0.00 90 1017.0
20260831080836 74 62 0.0 0.0 0.00 0.00 0.00 90 1016.7
20260831080336 74 62 0.0 0.0 0.00 0.00 0.00 90 1016.8
20260831075832 75 62 0.0 0.0 0.00 0.00 0.00 90 1016.8
20260831075326 75 62 0.0 0.0 0.00 0.00 0.00 90 1017.1
20260831074821 75 62 0.0 0.0 0.00 0.00 0.00 90 1017.2
20260831074320 75 62 0.0 0.0 0.00 0.00 0.00 90 1017.0
20260831073816 75 62 0.0 0.0 0.00 0.00 0.00 90 1016.9
20260831073315 75 62 0.0 0.0 0.00 0.00 0.00 90 1016.9
20260831072811 75 62 0.0 0.0 0.00 0.00 0.00 89 1017.2
20260831072307 75 62 0.0 0.0 0.00 0.00 0.00 89 1017.2
20260831071802 75 62 0.0 0.0 0.00 0.00 0.00 89 1017.0
20260831071256 75 61 0.0 0.0 0.00 0.00 0.00 90 1017.2
20260831070756 75 62 0.0 0.0 0.00 0.00 0.00 90 1017.1
20260831070255 75 61 0.0 0.0 0.00 0.00 0.00 90 1017.0
20260831065754 75 62 0.0 0.0 0.00 0.00 0.00 90 1017.1
20260831065252 75 62 0.0 0.0 0.00 0.00 0.00 90 1017.2
20260831064748 75 62 0.0 0.0 0.00 0.00 0.00 90 1017.3
20260831064243 75 61 0.0 0.0 0.00 0.00 0.00 90 1017.1
20260831063739 75 61 0.0 0.0 0.00 0.00 0.00 90 1017.2
20260831063234 75 62 0.0 0.0 0.00 0.00 0.00 89 1017.2
20260831062733 75 61 0.0 0.0 0.00 0.00 0.00 89 1017.0
20260831062229 76 61 0.0 0.0 0.00 0.00 0.00 88 1017.1
20260831061726 76 61 0.0 0.0 0.00 0.00 0.00 88 1017.1
20260831061222 76 62 0.0 0.0 0.00 0.00 0.00 88 1017.1
20260831060719 76 62 0.0 0.0 0.00 0.00 0.00 87 1017.0
20260831060219 76 61 0.0 0.0 0.00 0.00 0.00 88 1017.3
20260831055718 76 61 0.0 0.0 0.00 0.00 0.00 88 1017.2
20260831055213 76 61 0.0 0.0 0.00 0.00 0.00 88 1017.2
20260831054713 76 61 0.0 0.0 0.00 0.00 0.00 88 1017.3
20260831054209 76 61 0.0 0.0 0.00 0.00 0.00 88 1017.3
20260831053708 77 61 0.0 0.0 0.00 0.00 0.00 87 1017.4
20260831053206 77 62 0.0 0.0 0.00 0.00 0.00 87 1017.2
20260831052706 77 61 0.0 0.0 0.00 0.00 0.00 87 1017.3
20260831052206 77 61 0.0 0.0 0.00 0.00 0.00 87 1017.2
20260831051704 77 61 0.0 0.0 0.00 0.00 0.00 87 1017.5
20260831051203 77 61 0.0 0.0 0.00 0.00 0.00 86 1017.3
20260831050703 77 62 0.0 0.0 0.00 0.00 0.00 86 1017.3
20260831050202 77 61 0.0 0.0 0.00 0.00 0.00 86 1017.3
20260831045657 77 61 0.0 0.0 0.00 0.00 0.00 86 1017.3
20260831045151 78 62 0.0 0.0 0.00 0.00 0.00 85 1017.3
20260831044646 78 62 0.0 0.0 0.00 0.00 0.00 85 1017.2
20260831044141 78 62 0.0 0.0 0.00 0.00 0.00 85 1017.3
20260831043637 78 62 0.0 0.0 0.00 0.00 0.00 84 1017.3
20260831043132 78 68 0.0 0.0 0.00 0.00 0.00 84 1017.4
20260831042631 79 50 0.0 0.0 0.00 0.00 0.00 84 1017.3
20260831042126 79 50 0.0 0.0 0.00 0.00 0.00 84 1017.3
20260831041621 79 55 0.0 0.0 0.00 0.00 0.00 84 1017.4
20260831041121 79 63 0.0 0.0 0.00 0.00 0.00 84 1017.3
20260831040616 79 63 0.0 0.0 0.00 0.00 0.00 84 1017.2
20260831040115 79 62 0.0 0.0 0.00 0.00 0.00 83 1017.3
20260831035614 79 62 0.0 0.0 0.00 0.00 0.00 83 1017.2
20260831035109 79 67 0.0 0.0 0.00 0.00 0.00 83 1017.2
20260831034608 79 61 0.0 0.0 0.00 0.00 0.00 83 1017.3
20260831034103 79 61 0.0 0.0 0.00 0.00 0.00 83 1017.0
20260831033558 79 61 0.0 0.0 0.00 0.00 0.00 83 1017.0
20260831033048 80 62 0.0 0.0 0.00 0.00 0.00 82 1017.2
20260831032547 80 62 0.0 0.0 0.00 0.00 0.00 82 1017.1
20260831032043 80 61 0.0 0.0 0.00 0.00 0.00 81 1017.1
20260831031542 80 61 0.0 0.0 0.00 0.00 0.00 81 1017.3
20260831031042 80 62 0.0 0.0 0.00 0.00 0.00 81 1017.0
20260831030541 80 63 0.0 0.0 0.00 0.00 0.00 80 1017.1
20260831030040 81 56 0.0 0.0 0.00 0.00 0.00 80 1017.0
20260831025538 81 56 0.0 0.0 0.00 0.00 0.00 79 1017.0
20260831025034 81 67 0.0 0.0 0.00 0.00 0.00 79 1017.0
20260831024530 82 108 1.0 2.0 0.00 0.00 0.00 78 1017.1
20260831024029 82 42 0.0 0.0 0.00 0.00 0.00 78 1017.0
20260831023528 82 49 0.0 0.0 0.00 0.00 0.00 78 1016.9
20260831023027 82 56 0.0 0.0 0.00 0.00 0.00 77 1017.0
20260831022527 82 53 0.0 1.0 0.00 0.00 0.00 77 1017.1
20260831022023 82 53 0.0 0.0 0.00 0.00 0.00 77 1017.0
20260831021521 82 67 0.0 0.0 0.00 0.00 0.00 76 1016.9
20260831021018 82 58 0.0 0.0 0.00 0.00 0.00 77 1016.8
20260831020513 82 68 0.0 0.0 0.00 0.00 0.00 76 1016.9
20260831020007 82 70 0.0 1.0 0.00 0.00 0.00 76 1016.9
20260831015503 82 71 0.0 0.0 0.00 0.00 0.00 76 1016.7
20260831014958 83 70 0.0 0.0 0.00 0.00 0.00 76 1016.6
20260831014452 83 71 0.0 0.0 0.00 0.00 0.00 76 1016.4
20260831013948 83 69 0.0 0.0 0.00 0.00 0.00 75 1016.6
20260831013443 82 54 0.0 0.0 0.00 0.00 0.00 75 1016.4
20260831012938 82 57 0.0 0.0 0.00 0.00 0.00 76 1016.1
20260831012433 82 57 0.0 0.0 0.00 0.00 0.00 75 1016.1
20260831011932 83 50 0.0 0.0 0.00 0.00 0.00 76 1016.1
20260831011427 82 73 1.0 1.0 0.00 0.00 0.00 75 1016.1
20260831010923 83 62 0.0 0.0 0.00 0.00 0.00 75 1016.0
20260831010418 83 62 0.0 0.0 0.00 0.00 0.00 74 1016.0
20260831005913 83 62 0.0 0.0 0.00 0.00 0.00 73 1015.9
20260831005409 84 62 0.0 0.0 0.00 0.00 0.00 72 1016.0
20260831004903 84 62 0.0 0.0 0.00 0.00 0.00 71 1016.1
20260831004359 85 62 0.0 0.0 0.00 0.00 0.00 70 1016.0
20260831003855 85 56 0.0 0.0 0.00 0.00 0.00 70 1015.9
20260831003351 85 61 0.0 0.0 0.00 0.00 0.00 69 1015.9
20260831002850 85 69 0.0 0.0 0.00 0.00 0.00 68 1016.1
20260831002349 86 60 0.0 0.0 0.00 0.00 0.00 67 1016.1
20260831001845 86 61 0.0 0.0 0.00 0.00 0.00 66 1016.1
20260831001345 86 69 0.0 0.0 0.00 0.00 0.00 65 1016.1
20260831000843 86 67 0.0 1.0 0.00 0.00 0.00 65 1016.1
20260831000340 86 60 0.0 0.0 0.00 0.00 0.00 64 1016.3
20260830235836 87 61 0.0 0.0 0.00 0.00 0.00 62 1016.4
20260830235331 87 54 0.0 0.0 0.00 0.00 0.00 63 1016.0
20260830234827 88 54 0.0 0.0 0.00 0.00 0.00 63 1016.1
20260830234322 88 54 0.0 0.0 0.00 0.00 0.00 61 1015.9
20260830233818 89 52 0.0 0.0 0.00 0.00 0.00 59 1015.8
20260830233313 90 67 0.0 0.0 0.00 0.00 0.00 62 1015.9
20260830232808 91 60 0.0 0.0 0.00 0.00 0.00 57 1016.0
20260830232306 91 47 0.0 0.0 0.00 0.00 0.00 56 1015.9
20260830231800 91 54 0.0 0.0 0.00 0.00 0.00 57 1016.0
20260830231300 91 50 0.0 0.0 0.00 0.00 0.00 54 1016.0
20260830230755 92 61 0.0 0.0 0.00 0.00 0.00 53 1016.0
20260830230250 93 60 0.0 0.0 0.00 0.00 0.00 55 1016.0
20260830225750 93 64 0.0 0.0 0.00 0.00 0.00 52 1016.0
20260830225245 93 73 0.0 1.0 0.00 0.00 0.00 52 1015.9
20260830224744 93 49 0.0 1.0 0.00 0.00 0.00 52 1016.1
20260830224239 94 221 3.0 3.0 0.00 0.00 0.00 50 1015.9
20260830223736 94 58 0.0 0.0 0.00 0.00 0.00 49 1015.8
20260830223232 93 84 1.0 1.0 0.00 0.00 0.00 49 1015.8
20260830222726 93 57 0.0 0.0 0.00 0.00 0.00 51 1015.8
20260830222221 92 50 0.0 0.0 0.00 0.00 0.00 58 1015.9
20260830221717 91 48 0.0 0.0 0.00 0.00 0.00 53 1015.8
20260830221214 93 67 0.0 1.0 0.00 0.00 0.00 51 1015.9
20260830220709 94 51 1.0 1.0 0.00 0.00 0.00 49 1015.9
20260830220207 95 38 1.0 1.0 0.00 0.00 0.00 47 1015.9
20260830215707 96 213 2.0 4.0 0.00 0.00 0.00 44 1015.8
20260830215201 96 66 0.0 1.0 0.00 0.00 0.00 47 1015.9
20260830214657 95 43 1.0 2.0 0.00 0.00 0.00 47 1015.8
20260830214156 96 79 3.0 4.0 0.00 0.00 0.00 47 1016.0
20260830213656 96 53 1.0 2.0 0.00 0.00 0.00 45 1016.0
20260830213151 97 60 1.0 2.0 0.00 0.00 0.00 48 1016.1
20260830212647 96 46 3.0 4.0 0.00 0.00 0.00 45 1016.1
20260830212142 96 72 1.0 1.0 0.00 0.00 0.00 49 1016.4
20260830211637 95 46 0.0 0.0 0.00 0.00 0.00 45 1016.5
20260830211136 97 139 2.0 2.0 0.00 0.00 0.00 46 1016.5
20260830210632 97 9 2.0 2.0 0.00 0.00 0.00 45 1016.4
20260830210131 97 39 1.0 1.0 0.00 0.00 0.00 45 1016.5
20260830205628 96 46 2.0 3.0 0.00 0.00 0.00 42 1016.5
20260830205124 97 210 2.0 2.0 0.00 0.00 0.00 44 1016.5
20260830204624 97 28 2.0 2.0 0.00 0.00 0.00 43 1016.4
20260830204122 97 273 2.0 4.0 0.00 0.00 0.00 45 1016.3
20260830203619 97 48 1.0 1.0 0.00 0.00 0.00 44 1016.6
20260830203119 98 196 2.0 2.0 0.00 0.00 0.00 44 1016.7
20260830202619 97 53 0.0 1.0 0.00 0.00 0.00 41 1016.8
20260830202114 97 15 2.0 2.0 0.00 0.00 0.00 42 1016.8
20260830201613 97 279 4.0 4.0 0.00 0.00 0.00 47 1017.1
20260830201108 96 194 4.0 6.0 0.00 0.00 0.00 47 1017.0
20260830200604 95 100 1.0 2.0 0.00 0.00 0.00 47 1017.1
20260830200103 95 67 1.0 2.0 0.00 0.00 0.00 46 1016.9
20260830195559 95 287 5.0 7.0 0.00 0.00 0.00 44 1017.1
20260830195056 95 76 1.0 2.0 0.00 0.00 0.00 47 1017.1
20260830194551 95 117 2.0 2.0 0.00 0.00 0.00 46 1017.0
20260830194051 94 357 2.0 2.0 0.00 0.00 0.00 49 1017.2
20260830193550 95 18 2.0 3.0 0.00 0.00 0.00 47 1017.3
20260830193045 96 33 1.0 2.0 0.00 0.00 0.00 47 1017.3
20260830192541 95 75 2.0 3.0 0.00 0.00 0.00 45 1017.5
20260830192036 93 51 1.0 1.0 0.00 0.00 0.00 53 1017.4
20260830191531 92 101 0.0 2.0 0.00 0.00 0.00 50 1017.7
20260830191026 93 14 2.0 2.0 0.00 0.00 0.00 48 1017.7
20260830190521 95 32 2.0 2.0 0.00 0.00 0.00 47 1017.7
20260830190016 95 90 3.0 3.0 0.00 0.00 0.00 45 1017.5
20260830185510 94 35 2.0 3.0 0.00 0.00 0.00 47 1017.6
20260830185006 94 46 1.0 2.0 0.00 0.00 0.00 51 1018.0
20260830184504 94 269 4.0 4.0 0.00 0.00 0.00 46 1018.0
20260830184000 94 302 6.0 8.0 0.00 0.00 0.00 45 1018.0
20260830183459 95 318 6.0 8.0 0.00 0.00 0.00 45 1018.0
20260830182949 93 265 1.0 3.0 0.00 0.00 0.00 51 1017.9
20260830182444 93 197 1.0 3.0 0.00 0.00 0.00 47 1018.3
20260830181940 93 342 3.0 3.0 0.00 0.00 0.00 47 1018.2
20260830181437 93 14 3.0 4.0 0.00 0.00 0.00 46 1018.5
20260830180930 93 297 3.0 4.0 0.00 0.00 0.00 44 1018.3
20260830180430 93 325 2.0 4.0 0.00 0.00 0.00 47 1018.2
20260830175929 94 86 1.0 2.0 0.00 0.00 0.00 48 1018.3
20260830175429 94 256 5.0 8.0 0.00 0.00 0.00 46 1018.4
20260830174924 93 29 1.0 1.0 0.00 0.00 0.00 48 1018.3
20260830174420 93 254 4.0 6.0 0.00 0.00 0.00 48 1018.3
20260830173915 93 152 2.0 2.0 0.00 0.00 0.00 49 1018.3
20260830173410 92 313 3.0 3.0 0.00 0.00 0.00 50 1018.4
20260830172906 93 317 6.0 8.0 0.00 0.00 0.00 48 1018.4
20260830172402 93 244 6.0 8.0 0.00 0.00 0.00 50 1018.5
20260830171857 93 33 4.0 7.0 0.00 0.00 0.00 47 1018.5
20260830171353 92 127 1.0 2.0 0.00 0.00 0.00 51 1018.6
20260830170848 92 318 7.0 8.0 0.00 0.00 0.00 48 1018.6